Westminster, MD

12:13 PM EST on November 12, 2019 (GMT -0500)
Carroll County Regional-Poage

Weather History for KDMW - September, 2019

Change the Weather History Date:

Monday, September 23, 2019

  Actual Average (WUND) Record (WUND)
Temperature  
Mean Temperature 80 °F -  
Max Temperature 91 °F - - (-1)
Min Temperature 69 °F - - (-1)
Cooling Degree Days 15    
Growing Degree Days 30 (Base 50)    
Moisture  
Dew Point 65 °F    
Average Humidity 68    
Maximum Humidity 88    
Minimum Humidity 36    
Precipitation  
Precipitation 0.00 in - - ()
Sea Level Pressure  
Sea Level Pressure 29.93 in    
Wind  
Wind Speed 6 mph (SW)    
Max Wind Speed 15 mph    
Max Gust Speed 18 mph    
Visibility 10 miles    
Events Rain    
Averages and records for this station are not official NWS values.
T = Trace of Precipitation, MM = Missing Value Source: NWS Daily Summary

Daily Weather History Graph

Daily Weather History Graph

Search for Another Location

Airport or City:

Astronomy

Sep. 23, 2019 Rise Set
Actual Time 6:56 AM EDT 7:03 PM EDT
Civil Twilight 6:29 AM EDT 7:30 PM EDT
Nautical Twilight 5:58 AM EDT 8:02 PM EDT
Astronomical Twilight 5:26 AM EDT 8:33 PM EDT
Moon 12:38 AM EDT (9/23) 3:54 PM EDT (9/23)
Length of Visible Light 13h 01m
Length of Day
12h 07m
Waning Crescent, 33% of the Moon is Illuminated
Sep 23
Waning Crescent
Sep 28
New
Oct 5
First Quarter
Oct 13
Full
Oct 21
Last Quarter

Hourly Weather History & Observations

Time (EDT) Temp. Heat Index Dew Point Humidity Pressure Visibility Wind Dir Wind Speed Gust Speed Precip Events Conditions
12:00 AM 75.2 °F - 69.8 °F 83% 30.03 in 10.0 mi South 6.9 mph - N/A   Clear
12:20 AM 75.2 °F - 69.8 °F 83% 30.03 in 10.0 mi South 9.2 mph - N/A   Clear
12:40 AM 75.2 °F - 69.8 °F 83% 30.02 in 10.0 mi South 6.9 mph - N/A   Clear
1:00 AM 75.2 °F - 68.0 °F 78% 30.01 in 10.0 mi South 8.1 mph - N/A   Clear
1:20 AM 75.2 °F - 68.0 °F 78% 30.01 in 10.0 mi South 5.8 mph - N/A   Clear
1:40 AM 75.2 °F - 68.0 °F 78% 30.00 in 10.0 mi South 4.6 mph - N/A   Clear
2:20 AM 73.4 °F - 66.2 °F 78% 30.00 in 10.0 mi South 5.8 mph - N/A   Clear
2:40 AM 73.4 °F - 66.2 °F 78% 29.99 in 10.0 mi South 5.8 mph - N/A   Clear
3:00 AM 73.4 °F - 66.2 °F 78% 29.98 in 10.0 mi South 4.6 mph - N/A   Clear
3:20 AM 71.6 °F - 66.2 °F 83% 29.98 in 10.0 mi SSW 4.6 mph - N/A   Clear
3:40 AM 71.6 °F - 66.2 °F 83% 29.97 in 10.0 mi SSW 4.6 mph - N/A   Clear
4:00 AM 71.6 °F - 66.2 °F 83% 29.97 in 10.0 mi SSW 4.6 mph - N/A   Clear
4:20 AM 71.6 °F - 66.2 °F 83% 29.97 in 10.0 mi SSW 4.6 mph - N/A   Clear
4:40 AM 71.6 °F - 66.2 °F 83% 29.97 in 10.0 mi SSW 4.6 mph - N/A   Clear
5:00 AM 71.6 °F - 66.2 °F 83% 29.97 in 10.0 mi SW 3.5 mph - N/A   Clear
5:20 AM 71.6 °F - 64.4 °F 78% 29.97 in 10.0 mi SW 3.5 mph - N/A   Clear
5:40 AM 71.6 °F - 66.2 °F 83% 29.96 in 10.0 mi SW 3.5 mph - N/A   Clear
6:00 AM 69.8 °F - 64.4 °F 83% 29.97 in 10.0 mi SW 4.6 mph - N/A   Clear
6:20 AM 71.6 °F - 64.4 °F 78% 29.97 in 10.0 mi SW 5.8 mph - N/A   Clear
6:40 AM 71.6 °F - 64.4 °F 78% 29.97 in 10.0 mi SW 5.8 mph - N/A   Clear
7:00 AM 69.8 °F - 64.4 °F 83% 29.97 in 10.0 mi SW 5.8 mph - N/A   Clear
7:20 AM 69.8 °F - 64.4 °F 83% 29.97 in 10.0 mi SW 6.9 mph - N/A   Clear
7:40 AM 69.8 °F - 64.4 °F 83% 29.97 in 10.0 mi WSW 6.9 mph - N/A   Clear
8:00 AM 69.8 °F - 64.4 °F 83% 29.97 in 10.0 mi WSW 6.9 mph - N/A   Clear
8:20 AM 71.6 °F - 66.2 °F 83% 29.97 in 10.0 mi SW 6.9 mph - N/A   Clear
8:40 AM 71.6 °F - 66.2 °F 83% 29.98 in 10.0 mi WSW 6.9 mph - N/A   Clear
9:00 AM 73.4 °F - 66.2 °F 78% 29.98 in 10.0 mi SW 5.8 mph - N/A   Clear
9:20 AM 75.2 °F - 66.2 °F 73% 29.98 in 10.0 mi SW 6.9 mph - N/A   Clear
9:40 AM 77.0 °F - 66.2 °F 69% 29.97 in 10.0 mi SW 5.8 mph - N/A   Clear
10:00 AM 80.6 °F 82.3 °F 64.4 °F 58% 29.97 in 10.0 mi SW 6.9 mph - N/A   Clear
10:20 AM 80.6 °F 82.3 °F 64.4 °F 58% 29.97 in 10.0 mi SSW 6.9 mph - N/A   Clear
10:40 AM 82.4 °F 83.9 °F 64.4 °F 54% 29.96 in 10.0 mi SW 8.1 mph - N/A   Clear
11:00 AM 84.2 °F 85.0 °F 62.6 °F 48% 29.96 in 10.0 mi West 10.4 mph - N/A   Clear
11:20 AM 84.2 °F 85.0 °F 62.6 °F 48% 29.95 in 10.0 mi WSW 9.2 mph - N/A   Clear
11:40 AM 86.0 °F 86.1 °F 60.8 °F 43% 29.94 in 10.0 mi WSW 8.1 mph - N/A   Clear
12:00 PM 86.0 °F 86.1 °F 60.8 °F 43% 29.93 in 10.0 mi West 10.4 mph 17.3 mph N/A   Clear
12:20 PM 87.8 °F 87.6 °F 60.8 °F 40% 29.93 in 10.0 mi WSW 8.1 mph - N/A   Clear
12:40 PM 87.8 °F 88.5 °F 62.6 °F 43% 29.92 in 10.0 mi WSW 12.7 mph 18.4 mph N/A   Clear
1:00 PM 87.8 °F 88.5 °F 62.6 °F 43% 29.91 in 10.0 mi WSW 9.2 mph - N/A   Clear
1:20 PM 87.8 °F 87.6 °F 60.8 °F 40% 29.91 in 10.0 mi SW 8.1 mph - N/A   Clear
1:40 PM 89.6 °F 89.5 °F 60.8 °F 38% 29.90 in 10.0 mi SW 11.5 mph 17.3 mph N/A   Scattered Clouds
2:00 PM 89.6 °F 89.5 °F 60.8 °F 38% 29.89 in 10.0 mi WSW 9.2 mph - N/A   Scattered Clouds
2:20 PM 91.4 °F 91.4 °F 60.8 °F 36% 29.88 in 10.0 mi WSW 11.5 mph 18.4 mph N/A   Scattered Clouds
2:40 PM 89.6 °F 89.5 °F 60.8 °F 38% 29.88 in 10.0 mi SW 15.0 mph 18.4 mph N/A   Scattered Clouds
3:00 PM 87.8 °F 87.1 °F 59.0 °F 38% 29.87 in 10.0 mi SW 6.9 mph - N/A   Mostly Cloudy
3:20 PM 87.8 °F 87.6 °F 60.8 °F 40% 29.87 in 10.0 mi WSW 4.6 mph - N/A   Overcast
3:40 PM 87.8 °F 87.6 °F 60.8 °F 40% 29.86 in 10.0 mi WSW 4.6 mph - N/A   Overcast
4:00 PM 87.8 °F 87.6 °F 60.8 °F 40% 29.86 in 10.0 mi WSW 4.6 mph - N/A   Overcast
4:20 PM 87.8 °F 88.5 °F 62.6 °F 43% 29.86 in 10.0 mi WNW 8.1 mph - N/A Rain Light Rain
4:40 PM 86.0 °F 87.3 °F 64.4 °F 48% 29.85 in 10.0 mi NW 3.5 mph - N/A   Mostly Cloudy
5:40 PM 82.4 °F 83.9 °F 64.4 °F 54% 29.84 in 10.0 mi Calm Calm - N/A   Overcast
6:00 PM 82.4 °F 83.9 °F 64.4 °F 54% 29.85 in 10.0 mi Calm Calm - N/A   Overcast
6:20 PM 82.4 °F 83.9 °F 64.4 °F 54% 29.84 in 10.0 mi Calm Calm - N/A   Overcast
7:00 PM 82.4 °F 84.6 °F 66.2 °F 58% 29.84 in 10.0 mi Calm Calm - N/A   Overcast
7:20 PM 82.4 °F 85.4 °F 68.0 °F 62% 29.85 in 10.0 mi West 3.5 mph - N/A   Overcast
7:40 PM 78.8 °F - 69.8 °F 74% 29.86 in 10.0 mi West 10.4 mph 17.3 mph N/A   Drizzle
8:00 PM 75.2 °F - 69.8 °F 83% 29.87 in 7.0 mi West 10.4 mph - N/A Rain Rain
8:20 PM 73.4 °F - 69.8 °F 88% 29.86 in 10.0 mi WSW 4.6 mph - N/A   Overcast
8:40 PM 73.4 °F - 69.8 °F 88% 29.86 in 10.0 mi SW 3.5 mph - N/A   Overcast
9:00 PM 73.4 °F - 69.8 °F 88% 29.86 in 10.0 mi SW 5.8 mph - N/A   Overcast
9:20 PM 73.4 °F - 69.8 °F 88% 29.86 in 10.0 mi SW 4.6 mph - N/A   Overcast
9:40 PM 73.4 °F - 69.8 °F 88% 29.86 in 10.0 mi WSW 4.6 mph - N/A   Overcast
10:00 PM 73.4 °F - 69.8 °F 88% 29.87 in 10.0 mi West 5.8 mph - N/A   Overcast
10:20 PM 73.4 °F - 69.8 °F 88% 29.86 in 10.0 mi West 6.9 mph - N/A   Mostly Cloudy
10:40 PM 73.4 °F - 69.8 °F 88% 29.87 in 10.0 mi WSW 4.6 mph - N/A   Mostly Cloudy
11:00 PM 73.4 °F - 68.0 °F 83% 29.87 in 10.0 mi West 8.1 mph - N/A   Scattered Clouds
11:20 PM 73.4 °F - 66.2 °F 78% 29.87 in 10.0 mi WNW 10.4 mph - N/A   Clear
11:40 PM 73.4 °F - 66.2 °F 78% 29.87 in 10.0 mi West 6.9 mph - N/A   Clear